TimePDT,TemperatureF,Dew PointF,Humidity,Sea Level PressureIn,VisibilityMPH,Wind Direction,Wind SpeedMPH,Gust SpeedMPH,PrecipitationIn,Events,Conditions,WindDirDegrees,DateUTC
2:37 AM,51.8,48.2,88,30.07,10.0,Calm,Calm,-,N/A,,Overcast,0,2013-04-01 09:37:00
2:56 AM,51.1,48.9,92,30.06,10.0,Calm,Calm,-,N/A,,Overcast,0,2013-04-01 09:56:00
3:12 AM,51.8,48.2,88,30.07,10.0,Calm,Calm,-,N/A,,Overcast,0,2013-04-01 10:12:00
3:32 AM,51.8,48.2,88,30.07,10.0,Calm,Calm,-,N/A,,Overcast,0,2013-04-01 10:32:00
3:56 AM,51.1,48.9,92,30.06,10.0,Calm,Calm,-,N/A,,Overcast,0,2013-04-01 10:56:00
4:13 AM,51.8,48.2,88,30.08,10.0,Calm,Calm,-,N/A,,Overcast,0,2013-04-01 11:13:00
5:43 AM,51.8,48.2,88,30.09,10.0,NNW,3.5,-,N/A,,Overcast,340,2013-04-01 12:43:00
5:56 AM,51.1,48.9,92,30.08,10.0,NNW,3.5,-,N/A,,Overcast,340,2013-04-01 12:56:00
6:56 AM,48.9,46.9,93,30.09,10.0,Calm,Calm,-,N/A,,Mostly Cloudy,0,2013-04-01 13:56:00
7:10 AM,48.2,46.4,93,30.11,10.0,SSE,3.5,-,N/A,,Overcast,150,2013-04-01 14:10:00
7:25 AM,48.2,46.4,93,30.11,10.0,Calm,Calm,-,N/A,,Overcast,0,2013-04-01 14:25:00
7:42 AM,50.0,48.2,94,30.12,10.0,Calm,Calm,-,N/A,,Overcast,0,2013-04-01 14:42:00
7:54 AM,51.8,48.2,88,30.12,10.0,Calm,Calm,-,N/A,,Mostly Cloudy,0,2013-04-01 14:54:00
7:56 AM,51.1,48.0,89,30.12,10.0,Calm,Calm,-,N/A,,Mostly Cloudy,0,2013-04-01 14:56:00
8:56 AM,54.0,48.9,83,30.13,10.0,Calm,Calm,-,N/A,,Overcast,0,2013-04-01 15:56:00
9:56 AM,55.9,48.9,77,30.13,10.0,NNE,3.5,-,N/A,,Overcast,20,2013-04-01 16:56:00
10:56 AM,57.9,48.0,70,30.14,10.0,Calm,Calm,-,N/A,,Overcast,0,2013-04-01 17:56:00
11:56 AM,61.0,48.9,64,30.14,10.0,Calm,Calm,-,N/A,,Overcast,0,2013-04-01 18:56:00
1:56 PM,63.0,46.0,54,30.12,10.0,Variable,3.5,-,N/A,,Mostly Cloudy,0,2013-04-01 20:56:00
2:56 PM,66.0,46.0,48,30.11,10.0,South,6.9,-,N/A,,Clear,180,2013-04-01 21:56:00
3:56 PM,66.0,46.9,50,30.09,10.0,SSE,8.1,-,N/A,,Scattered Clouds,160,2013-04-01 22:56:00
4:56 PM,64.0,48.0,56,30.09,10.0,West,4.6,-,N/A,,Partly Cloudy,270,2013-04-01 23:56:00
5:56 PM,64.0,46.9,54,30.09,10.0,WSW,4.6,-,N/A,,Scattered Clouds,250,2013-04-02 00:56:00
6:56 PM,62.1,48.0,60,30.11,10.0,WNW,8.1,-,N/A,,Clear,290,2013-04-02 01:56:00
7:56 PM,57.0,48.0,72,30.13,10.0,North,6.9,-,N/A,,Clear,10,2013-04-02 02:56:00
8:56 PM,55.0,48.0,77,30.15,10.0,Calm,Calm,-,N/A,,Clear,0,2013-04-02 03:56:00
9:56 PM,52.0,46.9,83,30.15,10.0,Calm,Calm,-,N/A,,Clear,0,2013-04-02 04:56:00
10:56 PM,50.0,46.9,89,30.15,10.0,Calm,Calm,-,N/A,,Clear,0,2013-04-02 05:56:00
11:56 PM,50.0,46.0,86,30.15,10.0,Calm,Calm,-,N/A,,Clear,0,2013-04-02 06:56:00